Time,TemperatureF,DewpointF,PressureIn,WindDirection,WindDirectionDegrees,WindSpeedMPH,WindSpeedGustMPH,Humidity,HourlyPrecipIn,Conditions,Clouds,dailyrainin,SoftwareType,DateUTC
2013-03-01 00:04:00,32.1,28.0,29.73,WNW,295,5.0,10.0,86,0.00,,,0.00,weatherlink.com 1.10,2013-03-01 05:04:00,
2013-03-01 00:19:00,32.0,28.0,29.74,WNW,294,4.0,10.0,86,0.00,,,0.00,weatherlink.com 1.10,2013-03-01 05:19:00,
2013-03-01 00:34:00,31.8,28.0,29.74,NNW,339,4.0,13.0,85,0.00,,,0.00,weatherlink.com 1.10,2013-03-01 05:34:00,
2013-03-01 00:49:00,31.7,28.0,29.75,NW,326,5.0,12.0,85,0.00,,,0.00,weatherlink.com 1.10,2013-03-01 05:49:00,
2013-03-01 01:04:00,31.6,27.0,29.75,WNW,297,8.0,12.0,84,0.00,,,0.00,weatherlink.com 1.10,2013-03-01 06:04:00,
2013-03-01 01:19:00,31.5,27.0,29.75,NNW,329,5.0,11.0,84,0.00,,,0.00,weatherlink.com 1.10,2013-03-01 06:19:00,
2013-03-01 01:34:00,31.5,27.0,29.76,WNW,294,6.0,13.0,84,0.00,,,0.00,weatherlink.com 1.10,2013-03-01 06:34:00,
2013-03-01 01:49:00,31.3,27.0,29.76,NW,313,6.0,15.0,84,0.00,,,0.00,weatherlink.com 1.10,2013-03-01 06:49:00,
2013-03-01 02:04:00,31.2,27.0,29.77,NW,307,5.0,14.0,84,0.00,,,0.00,weatherlink.com 1.10,2013-03-01 07:04:00,
2013-03-01 02:19:00,31.1,27.0,29.77,NNW,338,9.0,14.0,83,0.00,,,0.00,weatherlink.com 1.10,2013-03-01 07:19:00,
2013-03-01 02:34:00,31.0,26.0,29.77,NW,311,10.0,15.0,83,0.00,,,0.00,weatherlink.com 1.10,2013-03-01 07:34:00,
2013-03-01 02:49:00,31.0,26.0,29.77,NW,307,7.0,12.0,83,0.00,,,0.00,weatherlink.com 1.10,2013-03-01 07:49:00,
2013-03-01 03:04:00,30.9,27.0,29.78,WNW,295,4.0,11.0,84,0.00,,,0.00,weatherlink.com 1.10,2013-03-01 08:04:00,
2013-03-01 03:19:00,30.7,26.0,29.79,WNW,295,12.0,12.0,83,0.00,,,0.00,weatherlink.com 1.10,2013-03-01 08:19:00,
2013-03-01 03:34:00,30.5,26.0,29.79,West,270,5.0,12.0,83,0.00,,,0.00,weatherlink.com 1.10,2013-03-01 08:34:00,
2013-03-01 03:49:00,30.3,26.0,29.79,WNW,290,6.0,12.0,84,0.00,,,0.00,weatherlink.com 1.10,2013-03-01 08:49:00,
2013-03-01 04:04:00,29.8,26.0,29.80,WNW,295,8.0,14.0,84,0.00,,,0.00,weatherlink.com 1.10,2013-03-01 09:04:00,
2013-03-01 04:19:00,29.6,25.0,29.80,West,280,7.0,12.0,84,0.00,,,0.00,weatherlink.com 1.10,2013-03-01 09:19:00,
2013-03-01 04:34:00,29.5,25.0,29.81,NW,311,6.0,13.0,84,0.00,,,0.00,weatherlink.com 1.10,2013-03-01 09:34:00,
2013-03-01 04:49:00,29.4,25.0,29.81,NW,309,10.0,13.0,84,0.00,,,0.00,weatherlink.com 1.10,2013-03-01 09:49:00,
2013-03-01 05:04:00,29.2,25.0,29.82,WNW,294,7.0,13.0,83,0.00,,,0.00,weatherlink.com 1.10,2013-03-01 10:04:00,
2013-03-01 05:19:00,29.1,25.0,29.82,NW,318,7.0,11.0,83,0.00,,,0.00,weatherlink.com 1.10,2013-03-01 10:19:00,
2013-03-01 05:34:00,29.0,25.0,29.82,NW,315,3.0,13.0,83,0.00,,,0.00,weatherlink.com 1.10,2013-03-01 10:34:00,
2013-03-01 05:49:00,29.0,25.0,29.82,NW,311,10.0,13.0,83,0.00,,,0.00,weatherlink.com 1.10,2013-03-01 10:49:00,
2013-03-01 06:04:00,28.9,24.0,29.83,West,273,4.0,10.0,83,0.00,,,0.00,weatherlink.com 1.10,2013-03-01 11:04:00,
2013-03-01 06:19:00,28.9,24.0,29.84,NW,326,6.0,11.0,83,0.00,,,0.00,weatherlink.com 1.10,2013-03-01 11:19:00,
2013-03-01 06:35:00,28.9,24.0,29.84,WNW,287,5.0,11.0,83,0.00,,,0.00,weatherlink.com 1.10,2013-03-01 11:35:00,
2013-03-01 06:50:00,28.9,24.0,29.84,West,276,2.0,10.0,83,0.00,,,0.00,weatherlink.com 1.10,2013-03-01 11:50:00,
2013-03-01 07:05:00,28.9,24.0,29.85,NNW,334,5.0,10.0,83,0.00,,,0.00,weatherlink.com 1.10,2013-03-01 12:05:00,
2013-03-01 07:20:00,28.9,24.0,29.85,WNW,290,4.0,12.0,83,0.00,,,0.00,weatherlink.com 1.10,2013-03-01 12:20:00,
2013-03-01 07:35:00,29.0,24.0,29.86,NW,322,3.0,10.0,82,0.00,,,0.00,weatherlink.com 1.10,2013-03-01 12:35:00,
2013-03-01 07:50:00,29.0,24.0,29.86,NNW,344,9.0,11.0,82,0.00,,,0.00,weatherlink.com 1.10,2013-03-01 12:50:00,
2013-03-01 08:05:00,28.9,24.0,29.87,NNW,329,8.0,10.0,81,0.00,,,0.00,weatherlink.com 1.10,2013-03-01 13:05:00,
2013-03-01 08:20:00,28.8,24.0,29.88,NW,322,5.0,11.0,81,0.00,,,0.00,weatherlink.com 1.10,2013-03-01 13:20:00,
2013-03-01 08:35:00,28.6,24.0,29.88,NW,318,8.0,17.0,81,0.00,,,0.00,weatherlink.com 1.10,2013-03-01 13:35:00,
2013-03-01 08:50:00,28.3,23.0,29.89,NW,323,5.0,15.0,81,0.00,,,0.00,weatherlink.com 1.10,2013-03-01 13:50:00,
2013-03-01 09:05:00,28.3,23.0,29.89,NNW,333,10.0,12.0,81,0.00,,,0.00,weatherlink.com 1.10,2013-03-01 14:05:00,
2013-03-01 09:20:00,28.2,23.0,29.89,NW,321,3.0,16.0,81,0.00,,,0.00,weatherlink.com 1.10,2013-03-01 14:20:00,
2013-03-01 09:35:00,28.1,23.0,29.89,NNW,329,8.0,13.0,81,0.00,,,0.00,weatherlink.com 1.10,2013-03-01 14:35:00,
2013-03-01 09:50:00,28.0,23.0,29.89,NW,325,6.0,15.0,80,0.00,,,0.00,weatherlink.com 1.10,2013-03-01 14:50:00,
2013-03-01 10:05:00,28.0,23.0,29.90,NW,304,7.0,14.0,80,0.00,,,0.00,weatherlink.com 1.10,2013-03-01 15:05:00,
2013-03-01 10:20:00,28.0,23.0,29.90,WNW,295,8.0,12.0,80,0.00,,,0.00,weatherlink.com 1.10,2013-03-01 15:20:00,
2013-03-01 10:35:00,27.9,23.0,29.91,NW,307,5.0,12.0,80,0.00,,,0.00,weatherlink.com 1.10,2013-03-01 15:35:00,
2013-03-01 10:51:00,27.9,23.0,29.91,NW,316,5.0,10.0,80,0.00,,,0.00,weatherlink.com 1.10,2013-03-01 15:51:00,
2013-03-01 11:05:00,27.9,23.0,29.91,West,273,4.0,11.0,80,0.00,,,0.00,weatherlink.com 1.10,2013-03-01 16:05:00,
2013-03-01 11:20:00,27.8,22.0,29.91,West,281,6.0,10.0,80,0.00,,,0.00,weatherlink.com 1.10,2013-03-01 16:20:00,
2013-03-01 11:35:00,27.4,22.0,29.91,WNW,294,11.0,14.0,81,0.00,,,0.00,weatherlink.com 1.10,2013-03-01 16:35:00,
2013-03-01 11:50:00,27.1,22.0,29.91,West,271,6.0,12.0,81,0.00,,,0.00,weatherlink.com 1.10,2013-03-01 16:50:00,
2013-03-01 12:05:00,27.2,22.0,29.91,WNW,298,7.0,12.0,80,0.00,,,0.00,weatherlink.com 1.10,2013-03-01 17:05:00,
2013-03-01 12:20:00,27.1,21.0,29.91,West,281,9.0,15.0,79,0.00,,,0.00,weatherlink.com 1.10,2013-03-01 17:20:00,
2013-03-01 12:35:00,27.2,22.0,29.91,WNW,293,6.0,13.0,79,0.00,,,0.00,weatherlink.com 1.10,2013-03-01 17:35:00,
2013-03-01 12:50:00,27.0,21.0,29.90,WNW,285,5.0,16.0,78,0.00,,,0.00,weatherlink.com 1.10,2013-03-01 17:50:00,
2013-03-01 13:05:00,27.0,21.0,29.90,West,274,6.0,13.0,78,0.00,,,0.00,weatherlink.com 1.10,2013-03-01 18:05:00,
2013-03-01 13:20:00,26.9,21.0,29.90,West,266,10.0,13.0,77,0.00,,,0.00,weatherlink.com 1.10,2013-03-01 18:20:00,
2013-03-01 13:35:00,26.5,20.0,29.90,WNW,301,7.0,14.0,77,0.00,,,0.00,weatherlink.com 1.10,2013-03-01 18:35:00,
2013-03-01 13:51:00,26.4,20.0,29.90,WNW,290,3.0,11.0,76,0.00,,,0.00,weatherlink.com 1.10,2013-03-01 18:51:00,
2013-03-01 14:21:00,26.2,20.0,29.90,WNW,295,7.0,14.0,76,0.00,,,0.00,weatherlink.com 1.10,2013-03-01 19:21:00,
2013-03-01 14:36:00,26.5,20.0,29.90,NW,321,3.0,12.0,76,0.00,,,0.00,weatherlink.com 1.10,2013-03-01 19:36:00,
2013-03-01 14:51:00,26.7,20.0,29.90,WNW,297,4.0,10.0,76,0.00,,,0.00,weatherlink.com 1.10,2013-03-01 19:51:00,
2013-03-01 15:06:00,26.9,20.0,29.90,WNW,298,5.0,11.0,75,0.00,,,0.00,weatherlink.com 1.10,2013-03-01 20:06:00,
2013-03-01 15:21:00,26.8,20.0,29.90,NW,308,8.0,12.0,75,0.00,,,0.00,weatherlink.com 1.10,2013-03-01 20:21:00,
2013-03-01 15:36:00,27.0,20.0,29.90,NW,309,6.0,7.0,75,0.00,,,0.00,weatherlink.com 1.10,2013-03-01 20:36:00,
2013-03-01 15:51:00,27.3,20.0,29.90,NW,307,2.0,8.0,74,0.00,,,0.00,weatherlink.com 1.10,2013-03-01 20:51:00,
2013-03-01 16:07:00,27.3,20.0,29.90,WNW,293,9.0,13.0,73,0.00,,,0.00,weatherlink.com 1.10,2013-03-01 21:07:00,
2013-03-01 16:22:00,27.6,20.0,29.90,NW,316,3.0,9.0,74,0.00,,,0.00,weatherlink.com 1.10,2013-03-01 21:22:00,
2013-03-01 16:37:00,27.9,20.0,29.90,WNW,301,6.0,11.0,73,0.00,,,0.00,weatherlink.com 1.10,2013-03-01 21:37:00,
2013-03-01 16:52:00,28.0,21.0,29.90,WNW,298,7.0,10.0,74,0.00,,,0.00,weatherlink.com 1.10,2013-03-01 21:52:00,
2013-03-01 17:07:00,28.0,21.0,29.91,WNW,302,3.0,12.0,75,0.00,,,0.00,weatherlink.com 1.10,2013-03-01 22:07:00,
2013-03-01 17:22:00,28.0,21.0,29.91,NW,309,1.0,7.0,75,0.00,,,0.00,weatherlink.com 1.10,2013-03-01 22:22:00,
2013-03-01 17:37:00,28.1,21.0,29.91,WNW,294,6.0,7.0,74,0.00,,,0.00,weatherlink.com 1.10,2013-03-01 22:37:00,
2013-03-01 17:51:00,28.1,21.0,29.91,NW,321,2.0,10.0,74,0.00,,,0.00,weatherlink.com 1.10,2013-03-01 22:51:00,
2013-03-01 18:06:00,28.1,21.0,29.91,WNW,290,2.0,8.0,74,0.00,,,0.00,weatherlink.com 1.10,2013-03-01 23:06:00,
2013-03-01 18:21:00,28.0,21.0,29.91,WNW,288,8.0,11.0,75,0.00,,,0.00,weatherlink.com 1.10,2013-03-01 23:21:00,
2013-03-01 18:36:00,27.9,21.0,29.92,WNW,285,5.0,11.0,74,0.00,,,0.00,weatherlink.com 1.10,2013-03-01 23:36:00,
2013-03-01 18:51:00,27.8,21.0,29.92,NW,321,2.0,10.0,75,0.00,,,0.00,weatherlink.com 1.10,2013-03-01 23:51:00,
2013-03-01 19:06:00,27.7,21.0,29.92,WNW,295,2.0,11.0,75,0.00,,,0.00,weatherlink.com 1.10,2013-03-02 00:06:00,
2013-03-01 19:21:00,27.7,21.0,29.92,NW,326,7.0,9.0,75,0.00,,,0.00,weatherlink.com 1.10,2013-03-02 00:21:00,
2013-03-01 19:36:00,27.5,21.0,29.92,NW,313,10.0,12.0,75,0.00,,,0.00,weatherlink.com 1.10,2013-03-02 00:36:00,
2013-03-01 19:51:00,27.5,21.0,29.92,NW,316,5.0,10.0,75,0.00,,,0.00,weatherlink.com 1.10,2013-03-02 00:51:00,
2013-03-01 20:06:00,27.4,21.0,29.92,NW,325,5.0,11.0,76,0.00,,,0.00,weatherlink.com 1.10,2013-03-02 01:06:00,
2013-03-01 20:22:00,27.3,21.0,29.92,WNW,289,7.0,11.0,77,0.00,,,0.00,weatherlink.com 1.10,2013-03-02 01:22:00,
2013-03-01 20:37:00,27.2,21.0,29.92,WNW,302,3.0,13.0,77,0.00,,,0.00,weatherlink.com 1.10,2013-03-02 01:37:00,
2013-03-01 20:52:00,27.1,21.0,29.92,NW,304,5.0,11.0,77,0.00,,,0.00,weatherlink.com 1.10,2013-03-02 01:52:00,
2013-03-01 21:07:00,27.0,21.0,29.92,WNW,291,5.0,9.0,77,0.00,,,0.00,weatherlink.com 1.10,2013-03-02 02:07:00,
2013-03-01 21:22:00,27.0,21.0,29.93,WNW,284,6.0,10.0,78,0.00,,,0.00,weatherlink.com 1.10,2013-03-02 02:22:00,
2013-03-01 21:37:00,26.9,21.0,29.93,NW,318,8.0,10.0,78,0.00,,,0.00,weatherlink.com 1.10,2013-03-02 02:37:00,
2013-03-01 21:52:00,26.9,21.0,29.93,NW,311,6.0,8.0,78,0.00,,,0.00,weatherlink.com 1.10,2013-03-02 02:52:00,
2013-03-01 22:07:00,26.8,21.0,29.94,NW,326,7.0,11.0,77,0.00,,,0.00,weatherlink.com 1.10,2013-03-02 03:07:00,
2013-03-01 22:22:00,26.7,20.0,29.94,NW,323,7.0,12.0,76,0.00,,,0.00,weatherlink.com 1.10,2013-03-02 03:22:00,
2013-03-01 22:37:00,26.6,20.0,29.94,NW,322,6.0,11.0,77,0.00,,,0.00,weatherlink.com 1.10,2013-03-02 03:37:00,
2013-03-01 22:52:00,26.3,20.0,29.94,WNW,295,12.0,12.0,77,0.00,,,0.00,weatherlink.com 1.10,2013-03-02 03:52:00,
2013-03-01 23:07:00,25.6,19.0,29.95,NNW,327,11.0,15.0,77,0.00,,,0.00,weatherlink.com 1.10,2013-03-02 04:07:00,
2013-03-01 23:22:00,25.2,19.0,29.95,WNW,302,6.0,13.0,78,0.00,,,0.00,weatherlink.com 1.10,2013-03-02 04:22:00,
2013-03-01 23:37:00,25.1,19.0,29.95,NW,307,6.0,12.0,79,0.00,,,0.00,weatherlink.com 1.10,2013-03-02 04:37:00,
2013-03-01 23:52:00,24.8,19.0,29.95,WNW,293,8.0,13.0,79,0.00,,,0.00,weatherlink.com 1.10,2013-03-02 04:52:00,